OK1HRA-8 Weather Reports


time (UTC)temp
C
wind
direction
speed
KPH
gust
KPH
rain 1hr
cm
rain 24hr
cm
rain mn
cm
humidity
%
barometer
mb
20260505041339 13 -1 0.0 0.0 0.00 0.00 0.00 6 996.2
20260505040832 13 -1 0.0 0.0 0.00 0.00 0.00 6 996.3
20260505040325 13 0 0.0 0.0 0.00 0.00 0.00 6 996.0
20260505035817 13 -1 0.0 0.0 0.00 0.00 0.00 6 995.8
20260505035310 13 -1 0.0 0.0 0.00 0.00 0.00 6 996.1
20260505034803 13 -1 0.0 0.0 0.00 0.00 0.00 6 995.6
20260505034256 13 -1 0.0 0.0 0.00 0.00 0.00 6 995.5
20260505033749 13 -1 0.0 0.0 0.00 0.00 0.00 6 995.6
20260505033242 13 -1 0.0 0.0 0.00 0.00 0.00 6 995.4
20260505032735 13 -1 0.0 0.0 0.00 0.00 0.00 6 996.3
20260505032228 13 -1 0.0 0.0 0.00 0.00 0.00 6 996.3
20260505031720 13 -1 0.0 0.0 0.00 0.00 0.00 6 997.4
20260505031213 13 -1 0.0 0.0 0.00 0.00 0.00 6 996.8
20260505030706 13 -1 0.0 0.0 0.00 0.00 0.00 6 996.6
20260505030159 13 -1 0.0 0.0 0.00 0.00 0.00 7 996.1
20260505025652 13 -1 0.0 0.0 0.00 0.00 0.00 7 995.5
20260505025145 13 -1 0.0 0.0 0.00 0.00 0.00 7 995.7
20260505024638 13 -1 0.0 0.0 0.00 0.00 0.00 7 996.0
20260505024130 13 -1 0.0 0.0 0.00 0.00 0.00 7 995.7
20260505023623 13 -1 0.0 0.0 0.00 0.00 0.00 7 995.6
20260505023117 13 -1 8.0 9.7 0.00 0.00 0.00 7 995.5
20260505022609 13 -1 6.4 12.9 0.00 0.00 0.00 7 995.6
20260505022103 13 -1 6.4 11.3 0.00 0.00 0.00 7 996.2
20260505021556 13 -1 9.7 19.3 0.00 0.00 0.00 7 995.7
20260505021047 13 -1 8.0 12.9 0.00 0.00 0.00 7 996.1
20260505020541 13 -1 6.4 9.7 0.00 0.00 0.00 7 995.9
20260505020033 13 -1 0.0 0.0 0.00 0.00 0.00 7 995.8
20260505015526 13 -1 0.0 0.0 0.00 0.00 0.00 7 996.1
20260505015020 13 -1 6.4 11.3 0.00 0.00 0.00 7 995.7
20260505014513 13 -1 6.4 12.9 0.00 0.00 0.00 7 995.5
20260505014005 13 -1 0.0 0.0 0.00 0.00 0.00 7 995.3
20260505013458 13 -1 0.0 0.0 0.00 0.00 0.00 6 996.1
20260505012952 13 -1 0.0 0.0 0.00 0.00 0.00 7 995.8
20260505012444 13 -1 0.0 0.0 0.00 0.00 0.00 7 995.6
20260505011938 13 -1 0.0 0.0 0.00 0.00 0.00 7 995.9
20260505011430 13 -1 6.4 9.7 0.00 0.00 0.00 7 996.0
20260505010921 13 -1 4.8 6.4 0.00 0.00 0.00 7 995.2
20260505010413 13 -1 0.0 0.0 0.00 0.00 0.00 6 995.5
20260505005906 14 -1 4.8 6.4 0.00 0.00 0.00 6 995.3
20260505005358 14 -1 4.8 8.0 0.00 0.00 0.00 6 995.6
20260505004851 14 -1 8.0 11.3 0.00 0.00 0.00 6 996.0
20260505004344 15 -1 8.0 11.3 0.00 0.00 0.00 6 995.9
20260505003836 14 -1 0.0 0.0 0.00 0.00 0.00 6 995.8
20260505003328 14 -1 0.0 0.0 0.00 0.00 0.00 6 995.4
20260505002822 14 -1 4.8 6.4 0.00 0.00 0.00 6 995.7
20260505002315 14 -1 6.4 9.7 0.00 0.00 0.00 7 995.6
20260505001806 14 -1 8.0 11.3 0.00 0.00 0.00 7 995.8
20260505001259 14 -1 8.0 11.3 0.00 0.00 0.00 7 995.5
20260505000752 14 -1 6.4 11.3 0.00 0.00 0.00 7 995.5
20260505000245 14 -1 0.0 0.0 0.00 0.00 0.00 7 995.7
20260504235737 14 -1 6.4 9.7 0.00 0.00 0.00 7 996.0
20260504235230 15 -1 9.7 11.3 0.00 0.00 0.00 6 995.7
20260504234723 15 -1 11.3 12.9 0.00 0.00 0.00 6 995.6
20260504234215 15 -1 8.0 11.3 0.00 0.00 0.00 6 995.9
20260504233708 15 -1 8.0 9.7 0.00 0.00 0.00 6 996.1
20260504233201 15 -1 8.0 8.0 0.00 0.00 0.00 6 996.5
20260504232653 15 -1 0.0 0.0 0.00 0.00 0.00 6 997.0
20260504232146 15 -1 6.4 9.7 0.00 0.00 0.00 6 997.4
20260504231639 15 -1 8.0 9.7 0.00 0.00 0.00 7 996.8
20260504231131 15 -1 0.0 0.0 0.00 0.00 0.00 6 996.5
20260504230623 15 -1 8.0 16.1 0.00 0.00 0.00 6 997.1
20260504230116 15 -1 6.4 16.1 0.00 0.00 0.00 6 996.4
20260504225609 15 -1 11.3 19.3 0.00 0.00 0.00 6 996.8
20260504225102 15 -1 11.3 19.3 0.00 0.00 0.00 6 997.1
20260504224554 15 -1 11.3 19.3 0.00 0.00 0.00 5 997.5
20260504224046 15 -1 12.9 25.7 0.00 0.00 0.00 5 996.8
20260504223539 15 -1 12.9 22.5 0.00 0.00 0.00 5 997.4
20260504223032 15 -1 11.3 17.7 0.00 0.00 0.00 5 997.5
20260504222525 16 -1 8.0 14.5 0.00 0.00 0.00 5 997.2
20260504222018 16 -1 9.7 17.7 0.00 0.00 0.00 5 996.9
20260504221511 16 -1 11.3 16.1 0.00 0.00 0.00 5 995.8
20260504221004 16 -1 8.0 14.5 0.00 0.00 0.00 5 995.1
20260504220456 16 -1 9.7 16.1 0.00 0.00 0.00 5 994.9
20260504215949 16 -1 9.7 14.5 0.00 0.00 0.00 5 995.2
20260504215442 16 -1 9.7 17.7 0.00 0.00 0.00 5 995.7
20260504214934 16 -1 6.4 12.9 0.00 0.00 0.00 4 997.6
20260504214427 17 -1 6.4 11.3 0.00 0.00 0.00 4 997.1
20260504213920 17 -1 8.0 12.9 0.00 0.00 0.00 5 996.2
20260504213412 17 -1 8.0 12.9 0.00 0.00 0.00 5 995.1
20260504212904 17 -1 8.0 12.9 0.00 0.00 0.00 5 994.9
20260504212356 17 -1 9.7 12.9 0.00 0.00 0.00 5 995.3
20260504211848 17 -1 9.7 16.1 0.00 0.00 0.00 5 994.9
20260504211341 17 -1 6.4 11.3 0.00 0.00 0.00 5 995.5
20260504210834 17 -1 8.0 14.5 0.00 0.00 0.00 5 994.8
20260504210326 17 -1 6.4 9.7 0.00 0.00 0.00 5 995.3
20260504205819 17 -1 6.4 11.3 0.00 0.00 0.00 5 995.0
20260504205311 17 -1 8.0 14.5 0.00 0.00 0.00 5 994.5
20260504204804 17 -1 8.0 14.5 0.00 0.00 0.00 5 994.7
20260504204256 17 -1 8.0 12.9 0.00 0.00 0.00 5 995.0
20260504203748 17 -1 8.0 11.3 0.00 0.00 0.00 5 995.5
20260504203241 17 -1 8.0 12.9 0.00 0.00 0.00 5 995.2
20260504202733 17 -1 0.0 0.0 0.00 0.00 0.00 5 995.6
20260504202225 17 -1 0.0 0.0 0.00 0.00 0.00 5 996.1
20260504201718 17 -1 0.0 0.0 0.00 0.00 0.00 5 995.8
20260504201210 17 -1 0.0 0.0 0.00 0.00 0.00 5 995.5
20260504200703 18 -1 6.4 12.9 0.00 0.00 0.00 4 996.8
20260504200155 18 -1 8.0 12.9 0.00 0.00 0.00 4 996.7
20260504195647 18 -1 8.0 11.3 0.00 0.00 0.00 4 996.0
20260504195139 18 -1 8.0 11.3 0.00 0.00 0.00 4 996.0
20260504194631 18 -1 8.0 11.3 0.00 0.00 0.00 4 996.1
20260504194123 18 -1 6.4 9.7 0.00 0.00 0.00 4 996.4
20260504193615 18 -1 6.4 12.9 0.00 0.00 0.00 4 996.6
20260504193107 18 -1 8.0 14.5 0.00 0.00 0.00 4 996.8
20260504192559 18 -1 9.7 14.5 0.00 0.00 0.00 4 996.3
20260504192052 18 -1 8.0 14.5 0.00 0.00 0.00 4 996.3
20260504191545 18 -1 9.7 14.5 0.00 0.00 0.00 4 996.3
20260504191037 18 -1 11.3 14.5 0.00 0.00 0.00 4 995.7
20260504190529 18 -1 9.7 14.5 0.00 0.00 0.00 4 995.8
20260504190022 18 -1 8.0 14.5 0.00 0.00 0.00 4 996.0
20260504185514 18 -1 9.7 16.1 0.00 0.00 0.00 4 995.1
20260504185006 18 -1 8.0 14.5 0.00 0.00 0.00 4 995.9
20260504184458 18 -1 8.0 16.1 0.00 0.00 0.00 4 996.1
20260504183951 19 -1 8.0 16.1 0.00 0.00 0.00 4 995.9
20260504183444 19 -1 8.0 12.9 0.00 0.00 0.00 4 996.0
20260504182936 19 -1 8.0 12.9 0.00 0.00 0.00 4 995.7
20260504182428 19 -1 9.7 12.9 0.00 0.00 0.00 4 995.5
20260504181921 19 -1 6.4 12.9 0.00 0.00 0.00 4 995.7
20260504181413 19 -1 8.0 14.5 0.00 0.00 0.00 4 995.0
20260504180906 19 -1 8.0 16.1 0.00 0.00 0.00 4 994.5
20260504180359 20 -1 11.3 19.3 0.00 0.00 0.00 4 995.7
20260504175852 20 -1 6.4 12.9 0.00 0.00 0.00 4 995.6
20260504175345 20 -1 9.7 19.3 0.00 0.00 0.00 4 995.2
20260504174837 20 90 11.3 17.7 0.00 0.00 0.00 4 994.8
20260504174330 20 -1 8.0 12.9 0.00 0.00 0.00 4 995.5
20260504173823 20 -1 6.4 14.5 0.00 0.00 0.00 4 995.7
20260504173315 20 -1 8.0 14.5 0.00 0.00 0.00 4 996.1
20260504172808 20 -1 9.7 16.1 0.00 0.00 0.00 4 996.3
20260504172303 20 90 9.7 16.1 0.00 0.00 0.00 4 995.7
20260504171754 20 -1 11.3 16.1 0.00 0.00 0.00 4 996.0
20260504171247 20 -1 9.7 19.3 0.00 0.00 0.00 3 996.1
20260504170740 21 45 9.7 17.7 0.00 0.00 0.00 3 996.8
20260504170233 21 -1 8.0 14.5 0.00 0.00 0.00 3 996.3
20260504160106 22 -1 8.0 11.3 0.00 0.00 0.00 3 997.5
20260504150951 22 -1 9.7 17.7 0.00 0.00 0.00 3 998.4
20260504150444 22 -1 9.7 16.1 0.00 0.00 0.00 3 997.7
20260504141330 22 -1 12.9 20.9 0.00 0.00 0.00 3 998.2
20260504140822 22 -1 9.7 17.7 0.00 0.00 0.00 3 999.8
20260504140315 22 -1 9.7 19.3 0.00 0.00 0.00 3 1000.1
20260504130654 21 -1 11.3 20.9 0.00 0.00 0.00 3 998.8
20260504130146 22 -1 8.0 12.9 0.00 0.00 0.00 3 1000.8
20260504110400 22 0 0.0 0.0 0.00 0.00 0.00 3 1003.0
20260504100228 20 -1 9.7 16.1 0.00 0.00 0.00 4 1001.3
20260504081957 19 -1 12.9 20.9 0.00 0.00 0.00 4 999.1
20260504081449 19 -1 8.0 14.5 0.00 0.00 0.00 4 1002.7
20260504080941 19 -1 9.7 16.1 0.00 0.00 0.00 4 1002.6
20260504080433 18 -1 9.7 17.7 0.00 0.00 0.00 4 1000.3
20260504070304 16 -1 9.7 14.5 0.00 0.00 0.00 5 1001.1
20260504060135 15 -1 9.7 14.5 0.00 0.00 0.00 6 999.7
20260504050516 10 -1 6.4 9.7 0.00 0.00 0.00 6 998.6
20260504050009 10 -1 6.4 11.3 0.00 0.00 0.00 6 999.5
20260504045502 10 -1 9.7 14.5 0.00 0.00 0.00 6 999.9
20260504044954 12 -1 0.0 0.0 0.00 0.00 0.00 6 996.3
20260504044447 11 -1 0.0 0.0 0.00 0.00 0.00 6 996.6
20260504043939 11 -1 0.0 0.0 0.00 0.00 0.00 6 996.4
20260504043432 12 -1 0.0 0.0 0.00 0.00 0.00 6 997.5
20260504042925 12 -1 0.0 0.0 0.00 0.00 0.00 6 996.8
20260504042417 12 -1 0.0 0.0 0.00 0.00 0.00 6 996.7
20260504041909 12 -1 0.0 0.0 0.00 0.00 0.00 6 995.8